Location: Gorrie
(43.8742°N, 81.1087°W)
Time: 17:36:46
(UTC+00:00)

Cosmos 2278 - Visible Passes

Search period start: 07 March 2026 00:00
Search period end: 17 March 2026 00:00
Orbit: 839 x 850 km, 71.1° (Epoch: 7 March)

Date Brightness Start Highest point End Pass type
(mag) Time Alt. Az. Time Alt. Az. Time Alt. Az.
7 Mar 5.7 08:19:21 21° N 08:19:21 21° N 08:21:19 10° NNE visible
7 Mar 5.8 10:01:13 10° NW 10:01:23 10° NW 10:02:21 10° NNW visible
8 Mar 5.8 08:05:24 19° N 08:05:24 19° N 08:07:05 10° NNE visible
8 Mar 5.9 09:47:16 11° NW 09:47:16 11° NW 09:48:24 10° NNW visible
9 Mar 6.0 07:51:26 18° NNE 07:51:26 18° NNE 07:52:51 10° NNE visible
9 Mar 5.9 09:33:17 11° NNW 09:33:17 11° NNW 09:34:22 10° NNW visible
10 Mar 6.1 07:37:26 16° NNE 07:37:26 16° NNE 07:38:36 10° NNE visible
10 Mar 6.0 09:19:17 11° NNW 09:19:17 11° NNW 09:20:17 10° NNW visible
11 Mar 6.2 07:23:24 15° NNE 07:23:24 15° NNE 07:24:21 10° NNE visible
11 Mar 6.0 09:05:15 11° NNW 09:05:15 11° NNW 09:06:11 10° NNW visible
12 Mar 6.3 07:09:22 14° NNE 07:09:22 14° NNE 07:10:06 10° NNE visible
12 Mar 6.0 08:51:13 11° NNW 08:51:13 11° NNW 08:52:04 10° NNW visible
13 Mar 6.4 06:55:18 13° NNE 06:55:18 13° NNE 06:55:51 10° NNE visible
13 Mar 6.1 08:37:09 11° NNW 08:37:09 11° NNW 08:37:56 10° NNW visible
14 Mar 6.5 06:41:12 12° NNE 06:41:12 12° NNE 06:41:36 10° NNE visible
14 Mar 6.1 08:23:04 11° NNW 08:23:04 11° NNW 08:23:47 10° NNW visible
15 Mar 6.6 06:27:06 11° NNE 06:27:06 11° NNE 06:27:21 10° NNE visible
15 Mar 6.2 08:08:57 11° NNW 08:08:57 11° NNW 08:09:38 10° NNW visible
16 Mar 6.6 06:12:59 11° NNE 06:12:59 11° NNE 06:13:06 10° NNE visible
16 Mar 6.2 07:54:49 11° NNW 07:54:49 11° NNW 07:55:28 10° NNW visible
